カタログに戻る

COSMOS 1275 DEB

運用中PO
NORAD 13053·DEBRIS·🇷🇺 Russia

打ち上げ Jun 4, 1981 から Plesetsk Cosmodrome

Loading…

次のパス (今後24時間)

TLE

最新Source: Space-Track

元期: Sep 13, 2026, 17:52 UTC

1 13053U 81053EY  26256.74458619  .00000879  00000-0  90189-3 0  9998
2 13053  83.0780 355.0305 0117112 196.9921 326.9196 13.72307500235656

AllMySatでCOSMOS 1275 DEBをリアルタイム追跡

Download on the App Store